Time,TemperatureF,DewpointF,PressureIn,WindDirection,WindDirectionDegrees,WindSpeedMPH,WindSpeedGustMPH,Humidity,HourlyPrecipIn,Conditions,Clouds,dailyrainin,SoftwareType,DateUTC
2013-07-02 00:11:00,78.0,56.0,29.45,North,-999,0.0,0.0,47,0.00,,,-99.99,,2013-07-02 07:11:00,
2013-07-02 00:22:00,78.0,56.0,29.45,North,-999,0.0,0.0,47,0.00,,,-99.99,,2013-07-02 07:22:00,
2013-07-02 00:33:00,78.0,56.0,29.45,North,-999,0.0,0.0,47,0.00,,,-99.99,,2013-07-02 07:33:00,
2013-07-02 00:44:00,78.0,56.0,29.45,North,-999,0.0,0.0,47,0.00,,,-99.99,,2013-07-02 07:44:00,
2013-07-02 01:44:00,79.0,55.0,29.43,North,0,0.0,1.0,43,0.00,,,-99.99,,2013-07-02 08:44:00,
2013-07-02 04:52:00,74.0,55.0,29.45,North,-999,0.0,0.0,51,0.00,,,-99.99,,2013-07-02 11:52:00,
2013-07-02 05:33:00,73.0,53.0,29.45,North,-999,0.0,0.0,49,0.00,,,-99.99,,2013-07-02 12:33:00,
2013-07-02 05:43:00,75.0,53.0,29.45,North,0,0.0,1.0,47,0.00,,,-99.99,,2013-07-02 12:43:00,
2013-07-02 05:52:00,75.0,53.0,29.45,North,0,0.0,1.0,47,0.00,,,-99.99,,2013-07-02 12:52:00,
2013-07-02 06:52:00,76.0,51.0,29.45,North,0,0.0,1.0,41,0.00,,,-99.99,,2013-07-02 13:52:00,
2013-07-02 07:43:00,79.0,51.0,29.48,North,-999,0.0,0.0,38,0.00,,,-99.99,,2013-07-02 14:43:00,
2013-07-02 08:53:00,81.0,54.0,29.51,North,0,0.0,1.0,39,0.00,,,-99.99,,2013-07-02 15:53:00,
2013-07-02 09:21:00,82.0,54.0,29.51,North,0,0.0,1.0,38,0.00,,,-99.99,,2013-07-02 16:21:00,
2013-07-02 09:33:00,82.0,54.0,29.51,North,0,0.0,1.0,38,0.00,,,-99.99,,2013-07-02 16:33:00,
2013-07-02 09:43:00,84.0,56.0,29.50,North,0,0.0,4.0,38,0.00,,,-99.99,,2013-07-02 16:43:00,
2013-07-02 09:52:00,84.0,56.0,29.50,North,0,0.0,4.0,38,0.00,,,-99.99,,2013-07-02 16:52:00,
2013-07-02 10:02:00,84.0,56.0,29.50,North,0,0.0,4.0,38,0.00,,,-99.99,,2013-07-02 17:02:00,
2013-07-02 10:11:00,85.0,58.0,29.50,North,0,0.0,1.0,40,0.00,,,-99.99,,2013-07-02 17:11:00,
2013-07-02 10:22:00,86.0,55.0,29.50,North,0,0.0,1.0,35,0.00,,,-99.99,,2013-07-02 17:22:00,
2013-07-02 10:33:00,86.0,55.0,29.50,North,0,0.0,1.0,35,0.00,,,-99.99,,2013-07-02 17:33:00,
2013-07-02 10:43:00,87.0,58.0,29.51,North,0,0.0,2.0,38,0.00,,,-99.99,,2013-07-02 17:43:00,
2013-07-02 10:53:00,87.0,58.0,29.51,North,0,0.0,2.0,38,0.00,,,-99.99,,2013-07-02 17:53:00,
2013-07-02 11:02:00,87.0,58.0,29.51,North,0,0.0,2.0,38,0.00,,,-99.99,,2013-07-02 18:02:00,
2013-07-02 11:11:00,87.0,55.0,29.50,North,-999,0.0,0.0,34,0.00,,,-99.99,,2013-07-02 18:11:00,
2013-07-02 11:23:00,87.0,55.0,29.50,North,-999,0.0,0.0,34,0.00,,,-99.99,,2013-07-02 18:23:00,
2013-07-02 11:43:00,86.0,62.0,29.49,North,0,0.0,1.0,44,0.00,,,-99.99,,2013-07-02 18:43:00,
2013-07-02 11:53:00,86.0,62.0,29.49,North,0,0.0,1.0,44,0.00,,,-99.99,,2013-07-02 18:53:00,
2013-07-02 12:11:00,86.0,62.0,29.50,WSW,240,1.0,1.0,45,0.00,,,-99.99,,2013-07-02 19:11:00,
2013-07-02 12:22:00,86.0,62.0,29.50,WSW,240,1.0,1.0,45,0.00,,,-99.99,,2013-07-02 19:22:00,
2013-07-02 12:43:00,85.0,62.0,29.51,SW,230,2.0,4.0,46,0.00,,,-99.99,,2013-07-02 19:43:00,
2013-07-02 12:53:00,85.0,62.0,29.51,SW,230,2.0,4.0,46,0.00,,,-99.99,,2013-07-02 19:53:00,
2013-07-02 13:11:00,83.0,61.0,29.53,North,0,0.0,2.0,48,0.00,,,-99.99,,2013-07-02 20:11:00,
2013-07-02 13:22:00,83.0,61.0,29.53,North,0,0.0,2.0,48,0.00,,,-99.99,,2013-07-02 20:22:00,
2013-07-02 13:31:00,83.0,58.0,29.53,North,0,0.0,1.0,42,0.00,,,-99.99,,2013-07-02 20:31:00,
2013-07-02 13:43:00,82.0,60.0,29.54,SW,220,2.0,2.0,47,0.00,,,-99.99,,2013-07-02 20:43:00,
2013-07-02 13:52:00,82.0,60.0,29.54,SW,220,2.0,2.0,47,0.00,,,-99.99,,2013-07-02 20:52:00,
2013-07-02 14:11:00,83.0,58.0,29.53,North,0,0.0,1.0,42,0.00,,,-99.99,,2013-07-02 21:11:00,
2013-07-02 14:22:00,83.0,58.0,29.53,North,0,0.0,1.0,42,0.00,,,-99.99,,2013-07-02 21:22:00,
2013-07-02 14:44:00,81.0,58.0,29.53,North,0,0.0,1.0,46,0.00,,,-99.99,,2013-07-02 21:44:00,
2013-07-02 14:52:00,81.0,58.0,29.53,North,0,0.0,1.0,46,0.00,,,-99.99,,2013-07-02 21:52:00,
2013-07-02 15:11:00,81.0,56.0,29.52,West,260,2.0,5.0,43,0.00,,,-99.99,,2013-07-02 22:11:00,
2013-07-02 15:22:00,82.0,57.0,29.51,West,260,3.0,11.0,42,0.00,,,-99.99,,2013-07-02 22:22:00,
2013-07-02 15:33:00,83.0,59.0,29.51,North,0,0.0,2.0,44,0.00,,,-99.99,,2013-07-02 22:33:00,
2013-07-02 15:43:00,86.0,59.0,29.50,North,0,0.0,5.0,40,0.00,,,-99.99,,2013-07-02 22:43:00,
2013-07-02 15:53:00,86.0,59.0,29.50,North,0,0.0,5.0,40,0.00,,,-99.99,,2013-07-02 22:53:00,
2013-07-02 16:01:00,86.0,59.0,29.50,North,0,0.0,5.0,40,0.00,,,-99.99,,2013-07-02 23:01:00,
2013-07-02 16:11:00,86.0,56.0,29.49,North,0,0.0,9.0,36,0.00,,,-99.99,,2013-07-02 23:11:00,
2013-07-02 16:22:00,86.0,56.0,29.49,North,0,0.0,9.0,36,0.00,,,-99.99,,2013-07-02 23:22:00,
2013-07-02 16:44:00,86.0,57.0,29.48,WSW,240,1.0,6.0,37,0.00,,,-99.99,,2013-07-02 23:44:00,
2013-07-02 16:52:00,86.0,57.0,29.48,WSW,240,1.0,6.0,37,0.00,,,-99.99,,2013-07-02 23:52:00,
2013-07-02 17:11:00,85.0,55.0,29.48,SW,230,2.0,3.0,36,0.00,,,-99.99,,2013-07-03 00:11:00,
2013-07-02 17:22:00,85.0,55.0,29.48,SW,230,2.0,3.0,36,0.00,,,-99.99,,2013-07-03 00:22:00,
2013-07-02 17:44:00,85.0,55.0,29.47,WSW,240,3.0,5.0,36,0.00,,,-99.99,,2013-07-03 00:44:00,
2013-07-02 17:52:00,85.0,55.0,29.47,WSW,240,3.0,5.0,36,0.00,,,-99.99,,2013-07-03 00:52:00,
2013-07-02 18:11:00,82.0,55.0,29.48,North,0,0.0,2.0,40,0.00,,,-99.99,,2013-07-03 01:11:00,
2013-07-02 18:22:00,81.0,54.0,29.48,North,0,0.0,7.0,40,0.00,,,-99.99,,2013-07-03 01:22:00,
2013-07-02 18:42:00,80.0,51.0,29.49,North,0,0.0,5.0,37,0.00,,,-99.99,,2013-07-03 01:42:00,
2013-07-02 18:59:00,80.0,51.0,29.49,North,0,0.0,5.0,37,0.00,,,-99.99,,2013-07-03 01:59:00,
2013-07-02 19:12:00,80.0,53.0,29.48,North,0,0.0,4.0,39,0.00,,,-99.99,,2013-07-03 02:12:00,
2013-07-02 19:24:00,80.0,53.0,29.48,North,0,0.0,4.0,39,0.00,,,-99.99,,2013-07-03 02:24:00,
2013-07-02 19:43:00,79.0,52.0,29.48,North,0,0.0,1.0,39,0.00,,,-99.99,,2013-07-03 02:43:00,
2013-07-02 19:58:00,79.0,52.0,29.48,North,0,0.0,1.0,39,0.00,,,-99.99,,2013-07-03 02:58:00,
2013-07-02 20:12:00,78.0,51.0,29.48,WNW,290,2.0,5.0,39,0.00,,,-99.99,,2013-07-03 03:12:00,
2013-07-02 20:25:00,78.0,51.0,29.48,WNW,290,2.0,5.0,39,0.00,,,-99.99,,2013-07-03 03:25:00,
2013-07-02 20:35:00,78.0,51.0,29.48,WNW,290,2.0,5.0,39,0.00,,,-99.99,,2013-07-03 03:35:00,
2013-07-02 20:44:00,77.0,49.0,29.49,WNW,300,2.0,6.0,37,0.00,,,-99.99,,2013-07-03 03:44:00,
2013-07-02 20:58:00,77.0,48.0,29.49,WNW,300,3.0,4.0,36,0.00,,,-99.99,,2013-07-03 03:58:00,
2013-07-02 21:01:00,77.0,48.0,29.49,WNW,300,3.0,4.0,36,0.00,,,-99.99,,2013-07-03 04:01:00,
2013-07-02 21:11:00,77.0,48.0,29.49,WNW,300,3.0,4.0,36,0.00,,,-99.99,,2013-07-03 04:11:00,
2013-07-02 21:22:00,78.0,50.0,29.49,WNW,290,3.0,6.0,38,0.00,,,-99.99,,2013-07-03 04:22:00,
2013-07-02 21:33:00,78.0,50.0,29.49,WNW,290,3.0,6.0,38,0.00,,,-99.99,,2013-07-03 04:33:00,
2013-07-02 22:01:00,80.0,52.0,29.51,WNW,290,4.0,5.0,38,0.00,,,-99.99,,2013-07-03 05:01:00,
2013-07-02 22:44:00,80.0,53.0,29.50,WNW,290,1.0,7.0,40,0.00,,,-99.99,,2013-07-03 05:44:00,
2013-07-02 23:57:00,82.0,52.0,29.49,West,280,7.0,7.0,35,0.00,,,-99.99,,2013-07-03 06:57:00,